Location: Unspecified
(0.0000°N, 0.0000°E)
Time: 03:28:55
(UTC+00:00)

BEESAT 3 - Visible Passes

Search period start: 04 July 2020 00:00
Search period end: 14 July 2020 00:00
Orbit: 480 x 524 km, 64.9° (Epoch: 03 July)

Date Brightness Start Highest point End Pass type
(mag) Time Alt. Az. Time Alt. Az. Time Alt. Az.
05 Jul ? 18:47:29 10° SSE 18:50:06 17° ESE 18:52:45 10° ENE visible
05 Jul ? 20:24:56 10° WSW 20:27:12 15° WNW 20:29:29 10° NNW visible
06 Jul ? 18:27:45 10° SSE 18:30:09 16° ESE 18:32:33 10° ENE visible
06 Jul ? 20:04:43 10° WSW 20:07:14 17° WNW 20:09:47 10° NNW visible
07 Jul ? 19:44:32 10° WSW 19:47:17 18° WNW 19:50:02 10° NNW visible
08 Jul ? 19:24:23 10° WSW 19:27:19 20° WNW 19:30:16 10° NNW visible
09 Jul ? 19:04:15 10° WSW 19:07:21 23° WNW 19:10:27 10° NNW visible
10 Jul ? 05:19:57 10° ENE 05:20:22 10° ENE 05:20:46 10° ENE visible
10 Jul ? 18:44:09 10° SW 18:47:23 25° WNW 18:50:39 10° N visible
